Powrót do katalogu

STARLINK-38083

AktywnyŁącznośćSSO
NORAD 100385·PAYLOAD·🇺🇸 United States

Wystrzelony Aug 19, 2026 z Vandenberg Space Force Base

Loading…

Następne Przeloty (najbliższe 24 godziny)

TLE

ŚwieżeSource: Space-Track

Epoka: Sep 14, 2026, 22:00 UTC

1 A0385U 26190Q   26257.91706566 -.00816963  00000-0 -67330-2 0  9992
2 A0385  97.2819 111.9481 0002695  84.1190 276.0381 15.72586105  5499

Śledź STARLINK-38083 w czasie rzeczywistym z AllMySat

Download on the App Store